Wright-Patt AFB, OH

6:52 AM EDT on September 25, 2017 (GMT -0400)
Wright-Patterson Air Force Base

Weather History for KFFO - August, 2013

Change the Weather History Date:

Saturday, August 31, 2013

  Actual Average Record
Temperature  
Mean Temperature 80 °F -  
Max Temperature 90 °F 80 °F 95 °F (2012)
Min Temperature 70 °F 58 °F 48 °F (1999)
Cooling Degree Days 14    
Growing Degree Days 30 (Base 50)    
Moisture  
Dew Point 69 °F    
Average Humidity 78    
Maximum Humidity 94    
Minimum Humidity 47    
Precipitation  
Precipitation 0.00 in - - ()
Sea Level Pressure  
Sea Level Pressure 29.83 in    
Wind  
Wind Speed 5 mph (SSW)    
Max Wind Speed 15 mph    
Max Gust Speed 22 mph    
Visibility 10 miles    
Events Rain , Thunderstorm    
Averages and records for this station are not official NWS values.
T = Trace of Precipitation, MM = Missing Value Source: NWS Daily Summary

Daily Weather History Graph

Daily Weather History Graph

Search for Another Location

Airport or City:

Trip Planner

Search our weather history database for the weather conditions in past years. The results will help you decide how hot, cold, wet, or windy it might be!

Date:

Astronomy

Aug. 31, 2013 Rise Set
Actual Time 7:03 AM EDT 8:08 PM EDT
Civil Twilight 6:35 AM EDT 8:36 PM EDT
Nautical Twilight 6:02 AM EDT 9:09 PM EDT
Astronomical Twilight 5:28 AM EDT 9:43 PM EDT
Moon 2:31 AM EDT (8/31) 5:06 PM EDT (8/31)
Length of Visible Light 14h 00m
Length of Day
13h 05m
Waning Crescent, 21% of the Moon is Illuminated
Aug 31
Waning Crescent
Sep 5
New
Sep 12
First Quarter
Sep 19
Full
Sep 26
Last Quarter

Hourly Weather History & Observations

Time (EDT) Temp. Heat Index Dew Point Humidity Pressure Visibility Wind Dir Wind Speed Gust Speed Precip Events Conditions
12:58 AM 74.1 °F - 67.3 °F 79% 29.84 in 10.0 mi ESE 3.5 mph - N/A   Clear
1:58 AM 74.8 °F - 68.0 °F 79% 29.83 in 10.0 mi SE 4.6 mph - N/A   Scattered Clouds
2:58 AM 74.7 °F - 68.0 °F 80% 29.81 in 10.0 mi SE 4.6 mph - N/A   Clear
3:16 AM 73.4 °F - 68.0 °F 83% 29.83 in 10.0 mi ESE 4.6 mph - N/A Thunderstorm Thunderstorm
3:30 AM 75.2 °F - 68.0 °F 78% 29.84 in 10.0 mi NW 15.0 mph 21.9 mph N/A Rain , Thunderstorm Light Thunderstorms and Rain
3:40 AM 73.4 °F - 69.8 °F 88% 29.82 in 8.0 mi Variable 4.6 mph - N/A Rain , Thunderstorm Light Thunderstorms and Rain
3:43 AM 75.2 °F - 69.8 °F 83% 29.83 in 10.0 mi SW 5.8 mph - N/A Thunderstorm Thunderstorm
3:58 AM 74.5 °F - 69.6 °F 85% 29.82 in 10.0 mi SSE 3.5 mph - 0.00 in Thunderstorm Thunderstorm
4:00 AM 75.2 °F - 69.8 °F 83% 29.83 in 10.0 mi Variable 3.5 mph - N/A Thunderstorm Mostly Cloudy
4:10 AM 75.2 °F - 69.8 °F 83% 29.83 in 10.0 mi NE 6.9 mph - N/A Rain , Thunderstorm Light Rain
4:17 AM 73.4 °F - 71.6 °F 94% 29.84 in 10.0 mi Variable 1.2 mph - N/A Thunderstorm Mostly Cloudy
4:25 AM 73.4 °F - 69.8 °F 88% 29.83 in 10.0 mi Variable 4.6 mph - N/A Thunderstorm Mostly Cloudy
4:40 AM 75.2 °F - 69.8 °F 83% 29.82 in 10.0 mi SE 2.3 mph - N/A   Mostly Cloudy
4:58 AM 73.2 °F - 69.8 °F 89% 29.82 in 10.0 mi North 3.5 mph - N/A   Scattered Clouds
5:58 AM 72.5 °F - 69.4 °F 90% 29.84 in 10.0 mi East 1.2 mph - N/A   Mostly Cloudy
6:58 AM 71.1 °F - 68.4 °F 91% 29.84 in 10.0 mi South 5.8 mph - N/A   Mostly Cloudy
7:58 AM 70.9 °F - 68.0 °F 91% 29.84 in 10.0 mi Calm Calm - N/A   Partly Cloudy
8:58 AM 75.6 °F - 70.0 °F 83% 29.86 in 10.0 mi SSE 8.1 mph - N/A   Clear
9:58 AM 77.5 °F - 69.8 °F 77% 29.87 in 10.0 mi Variable 3.5 mph - N/A   Clear
10:04 AM 78.8 °F - 69.8 °F 74% 29.86 in 10.0 mi South 3.5 mph - N/A   Scattered Clouds
10:07 AM 78.8 °F - 69.8 °F 74% 29.87 in 10.0 mi SW 4.6 mph - N/A   Partly Cloudy
10:58 AM 78.6 °F - 69.6 °F 74% 29.86 in 10.0 mi WSW 5.8 mph - 0.00 in   Scattered Clouds
11:58 AM 82.2 °F 85.8 °F 69.4 °F 65% 29.86 in 10.0 mi SW 8.1 mph - N/A   Scattered Clouds
12:58 PM 86.5 °F 90.0 °F 68.2 °F 54% 29.85 in 10.0 mi SSW 9.2 mph - N/A   Scattered Clouds
1:58 PM 89.2 °F 92.8 °F 68.0 °F 49% 29.84 in 10.0 mi South 8.1 mph - N/A   Scattered Clouds
2:58 PM 88.7 °F 91.1 °F 66.0 °F 47% 29.83 in 10.0 mi WSW 5.8 mph - N/A   Mostly Cloudy
3:58 PM 88.3 °F 92.0 °F 68.2 °F 51% 29.82 in 10.0 mi West 8.1 mph - N/A   Overcast
4:58 PM 86.5 °F 91.0 °F 69.4 °F 57% 29.79 in 10.0 mi West 3.5 mph - N/A   Overcast
5:58 PM 82.0 °F 85.1 °F 68.4 °F 63% 29.82 in 10.0 mi NW 12.7 mph - N/A   Overcast
6:45 PM 77.0 °F - 66.2 °F 69% 29.85 in 10.0 mi WNW 9.2 mph - N/A Rain Light Rain
6:57 PM 75.2 °F - 66.2 °F 73% 29.84 in 10.0 mi SW 9.2 mph - N/A   Overcast
6:58 PM 75.6 °F - 66.6 °F 74% 29.85 in 10.0 mi SW 9.2 mph - 0.00 in   Overcast
7:06 PM 73.4 °F - 66.2 °F 78% 29.80 in 10.0 mi SSW 9.2 mph - N/A Rain Light Rain
7:39 PM 73.4 °F - 66.2 °F 78% 29.82 in 10.0 mi West 8.1 mph - N/A   Overcast
7:58 PM 73.6 °F - 66.0 °F 77% 29.83 in 10.0 mi SE 3.5 mph - 0.00 in   Overcast
8:58 PM 71.8 °F - 67.3 °F 86% 29.83 in 10.0 mi SW 5.8 mph - N/A   Overcast
9:58 PM 71.8 °F - 68.9 °F 91% 29.82 in 10.0 mi SSW 2.3 mph - N/A   Clear
10:58 PM 72.0 °F - 69.1 °F 91% 29.82 in 10.0 mi North 2.3 mph - N/A   Mostly Cloudy
11:58 PM 70.3 °F - 68.5 °F 94% 29.83 in 10.0 mi SE 5.8 mph - N/A   Partly Cloudy